This demonstration page uses our WeatherBlox Daily Observations layout. Learn more.

Left ArrowRight Arrow

38.20091, -84.87328

Hourly Observations for February 12, 2018

Temp ( °F °C ) Dew Point ( °F °C ) Humidity (%) Winds ( mph kmh ) Pressure ( in mb ) Visibility ( mi km ) Precip ( " mm )
12:53 am 00:53 Cloudy with Light Wintry Mix 31 -0.6 26 -3.3 82 82 N 3 6 30.29 1026 5 8 0.00 0.03
1:06 am 01:06 Cloudy with Light Wintry Mix 31 -0.6 27 -2.8 85 85 N 9 15 30.36 1028 4 6 0.00 0.03
1:19 am 01:19 Cloudy with Light Freezing Rain 31 -0.6 26 -3.3 82 82 NNW 8 13 30.36 1028 4 6 0.00 0.03
1:33 am 01:33 Cloudy with Light Freezing Rain 31 -0.6 26 -3.3 82 82 NNW 6 9 30.36 1028 4 6 0.00 0.03
1:37 am 01:37 Cloudy with Freezing Rain 30 -1.1 26 -3.3 85 85 NW 13 20 30.39 1029 2 3 0.00 0.03
1:44 am 01:44 Cloudy with Light Wintry Mix 30 -1.1 26 -3.3 85 85 NNW 12 19 30.36 1028 2 2 0.00 0.03
1:53 am 01:53 Cloudy with Light Wintry Mix 30 -1.1 26 -3.3 85 85 NNW 8 13 30.33 1027 2 3 0.00 0.00
2:02 am 02:02 Cloudy with Light Wintry Mix 30 -1.1 26 -3.3 85 85 NNW 13 20 30.39 1029 2 3 0.00 0.00
2:09 am 02:09 Cloudy with Light Wintry Mix 30 -1.1 25 -3.9 82 82 NNW 9 15 30.39 1029 3 4 0.00 0.00
2:30 am 02:30 Cloudy with Light Wintry Mix 30 -1.1 25 -3.9 82 82 NNW 10 17 30.39 1029 4 6 0.00 0.00
2:53 am 02:53 Cloudy 30 -1.1 24 -4.4 79 79 N 5 7 30.35 1028 9 14 0.00 0.00
3:04 am 03:04 Cloudy 30 -1.1 24 -4.4 79 79 NNW 9 15 30.42 1030 9 14 0.00 0.00
3:29 am 03:29 Cloudy 30 -1.1 24 -4.4 79 79 NNW 5 7 30.42 1030 10 16 0.00 0.00
3:53 am 03:53 Cloudy 30 -1.1 24 -4.4 79 79 N 7 11 30.37 1029 10 16 0.00 0.00
4:53 am 04:53 Cloudy 30 -1.1 23 -5 75 75 N 7 11 30.41 1030 10 16 0.00 0.00
5:34 am 05:34 Mostly Cloudy 29 -1.7 23 -5 78 78 NNW 10 17 30.45 1031 10 16 0.00 0.00
5:53 am 05:53 Mostly Clear 29 -1.7 23 -5 78 78 N 7 11 30.45 1031 10 16 0.00 0.00
6:53 am 06:53 Clear 28 -2.2 21 -6.1 75 75 N 5 7 30.48 1032 10 16 0.00 0.00
7:17 am 07:17 Mostly Cloudy 28 -2.2 21 -6.1 75 75 N 6 9 30.50 1033 10 16 0.00 0.00
7:51 am 07:51 Cloudy 28 -2 21 -6 74 74 N 8 13 30.53 1034 10 16 0.00 0.00
7:53 am 07:53 Cloudy 28 -2.2 21 -6.1 75 75 NNE 9 15 30.52 1034 10 16 0.00 0.00
8:46 am 08:46 Cloudy 28 -2.2 21 -6.1 75 75 NE 7 11 30.56 1035 10 16 0.00 0.00
8:53 am 08:53 Cloudy 28 -2.2 21 -6.1 75 75 NNE 8 13 30.54 1034 10 16 0.00 0.00
9:28 am 09:28 Mostly Sunny 29 -1.7 21 -6.1 72 72 NE 8 13 30.56 1035 10 16 0.00 0.00
9:53 am 09:53 Mostly Sunny 29 -1.7 21 -6.1 72 72 NE 8 13 30.56 1035 10 16 0.00 0.00
10:48 am 10:48 Mostly Cloudy 32 0 23 -5 69 69 NNE 6 9 30.59 1036 10 16 0.00 0.00
10:53 am 10:53 Mostly Cloudy 32 0 22 -5.6 66 66 NNE 9 15 30.58 1036 10 16 0.00 0.00
11:32 am 11:32 Partly Cloudy 34 1.1 24 -4.4 67 67 NE 8 13 30.59 1036 10 16 0.00 0.00
11:53 am 11:53 Sunny 36 2.2 24 -4.4 62 62 VRB 7 11 30.59 1036 10 16 0.00 0.00
12:53 pm 12:53 Sunny 38 3.3 25 -3.9 60 60 E 8 13 30.59 1036 10 16 0.00 0.00
1:53 pm 13:53 Sunny 41 5 21 -6.1 45 45 NNE 12 19 30.57 1035 10 16 0.00 0.00
2:53 pm 14:53 Sunny 43 6.1 21 -6.1 42 42 NE 10 17 30.56 1035 10 16 0.00 0.00
3:53 pm 15:53 Sunny 43 6.1 20 -6.7 40 40 NE 12 19 30.57 1035 10 16 0.00 0.00
4:53 pm 16:53 Sunny 42 5.6 17 -8.3 36 36 ENE 12 19 30.59 1036 10 16 0.00 0.00
5:53 pm 17:53 Sunny 41 5 16 -8.9 36 36 NE 9 15 30.61 1037 10 16 0.00 0.00
6:53 pm 18:53 Clear 39 3.9 18 -7.8 43 43 NNE 8 13 30.63 1037 10 16 0.00 0.00
7:53 pm 19:53 Clear 37 2.8 18 -7.8 46 46 NNE 10 17 30.63 1037 10 16 0.00 0.00
8:53 pm 20:53 Clear 35 1.7 20 -6.7 54 54 NE 8 13 30.64 1038 10 16 0.00 0.00
9:53 pm 21:53 Clear 33 0.6 21 -6.1 61 61 NE 9 15 30.64 1038 10 16 0.00 0.00
10:53 pm 22:53 Clear 32 0 22 -5.6 66 66 ENE 8 13 30.65 1038 10 16 0.00 0.00
11:53 pm 23:53 Clear 31 -0.6 21 -6.1 67 67 NNE 8 13 30.64 1038 10 16 0.00 0.00

Powered by AerisWeather